Showing default

GEESAT 3-10, 61020

Orbit data source: Space-Track

GEESAT 3-10, 61020 is a payload satellite owned by GeeSpace (CN) in LEO that was launched on Thu, 05 Sep 2024 UTC via a CHANG ZHENG 6 launch vehicle from the Taiyaun Space Center, China (TSC). Payloads include a variety of satellites, spacecraft, and rockets equipped with specific instruments for various scientific and technological missions. These include communications satellites like Starlink; space stations such as the ISS; scientific satellites like the Hubble; Earth observation satellites from companies like Planet Labs, Umbra, and HawkEye 360; GPS; miniature CubeSats for education and research; and military/defense satellites.

Loading next visibility...
GEESAT 3-10 details
Identifier
61020, 2024-159K
Orbit
LEO
Last TLE update9 hours ago
Origin
Flag of CNGeeSpace (CN / PRC)
ManufacturerTaizhou Xingkong
MissionOperational spacecraft
Bus & MotorGEESAT1, Unknown motor
Mass130 kg wet, 130 kg dry
Launch date (UTC)
2024-09-05 (4 months ago)
Launch vehicle
CHANG ZHENG 6
Launch site
Taiyaun Space Center, China (TSC)
Object type
Payload
Rocket body
Debris
Shape & HBRUnknown
Radar Cross SectionMedium (>0.1 m² and <1 m²)

Expand to show TLE details & history

TLE from 9 hours ago
0 GEESAT 3-10
1 61020U 24159K   25015.14424982  .00006770  00000-0  68614-3 0  9995
2 61020  50.0007 342.0608 0018592   2.1237 357.9781 14.91747132 19612
Epoch: 2025-01-15T03:27Z
Definitive object data (Epoch: 2025-01-15T03:27:43.184Z)
Latitude0.00001°
Longitude175.29007°
Altitude580.083 km
Speed7.579 km/s
True Right ascension22h 48m 14s
True Declination0° 00' 00"
Sunlit
Object was in daylight at TLE epoch
Visualization TLE readout
Latitude43.31118°
Longitude-58.26351°
Altitude601.542 km
Speed7.562 km/s
Apparent Right ascension04h 02m 43s
Apparent Declination6° 03' 30"
Sunlit
Object is in full shadow
Visualization observer readout
Local Sidereal Time12:41:31
Azimuth302.557° NW
Elevation-24.799°
Doppler factor1
Orbital elements
Apogee altitude606.21 km
Perigee altitude580.287 km
Semi-major axis6,971.386 km
Eccentricity0.0018592
Inclination50.0007°
RAAN342.0608°
Arg. of periapsis2.1237°
True anomaly357.97057°
Mean anomaly357.9781°
Eccentric anomaly357.97433°
Mean motion3.72876 °/min
BSTAR0.00068614
Orbital period96.55 mins
Loading maneuver chart data...
Loading historical data...
Loading historical data...
Loading historical data...
Loading historical data...
Loading historical data...
Loading historical data...
Loading historical data...

GEESAT 3-10 Visibility forecast

Observer location: undefined°, undefined

Span
Click to sort rows by Start time (UTC) header in descending order
Start Az.
Max El. time (UTC)
Max El. Az.
Max El.
End time (UTC)
End Az.
7 mins2025-01-16 00:33:13.480Z227.225° WSW2025-01-16 00:36:13.480Z173.926° S43.923°2025-01-16 00:40:13.480Z58.752° ENE
6 mins2025-01-16 02:15:13.480Z293.478° NW2025-01-16 02:17:13.480Z332.989° NNW26.261°2025-01-16 02:21:13.480Z43.008° NE
5 mins2025-01-16 03:57:13.480Z325.15° NNW2025-01-16 03:59:13.480Z359.951° N20.173°2025-01-16 04:02:13.480Z48.852° ENE
6 mins2025-01-16 05:38:13.480Z322.452° NNW2025-01-16 05:41:13.480Z28.786° NE31.656°2025-01-16 05:44:13.480Z86.582° E
7 mins2025-01-16 07:19:13.480Z287.722° WNW2025-01-16 07:22:13.480Z209.004° SW36.722°2025-01-16 07:26:13.480Z146.383° SSE
|